星链-35553(STARLINK-35553)

导读

STARLINK-35553是美国SpaceX星链星座的低轨通信卫星,于2025年10月22日发射。卫星运行于近350公里低轨,搭载Ku/Ka波段相控阵通信载荷与激光星间链路,采用霍尔推进器实现轨道机动与离轨。作为星链全球宽带互联网项目的组成部分,它可为偏远地区提供低延迟高速网络,同时支持商业与特种通信服务,寿命末期会主动坠入大气层销毁。

基本信息
目录编号:
66120
目录名称:
STARLINK-35553
国际标识:
2025-237G
轨道中心:
EARTH
卫星名称:
星链-35553
卫星全名:
星链-35553(STARLINK-35553)
卫星状态:
在轨 (已飞行317 天)
发射日期:
2025-10-22 UTC
国别 :
美国 (US)
星等 :
--
轨道信息
数据来源 国际轨道数据
星历时间: 2026-09-04T11:26:19+0800
11小时前
查看轨道信息
半长轴: 6840.846km
偏心率: 0.0001327
轨道倾角: 53.159°
近地点辐角 94.758°
升交点赤经 287.821°
平近点角 265.357°
近地点: 461.801km
远地点: 463.617km
周期: 93.848分钟
每日圈数: 15.343983
详细信息
固有亮度:
5
最大亮度:
2.5
卫星平台:
Starlink V1.0
覆盖范围:
全球
运营商:
太空探索技术公司
运营商所在国:
美国
制造商(研发单位):
太空探索技术公司
制造商所在国:
美国
使用方式:
暂无
卫星简介
Starlink 计划是 SpaceX 推出的全球卫星互联网项目,通过发射低轨道卫星,为全球尤其是偏远地区提供高速、低延迟的互联网服务。自 2019 年起,Starlink 已部署数千颗卫星,旨在缩小全球数字鸿沟,推动互联网普及。该项目还为军事、航空等行业提供通信支持,带来广泛经济效益。
2D轨道图
3D轨道图
轨道高度分析图
轨道倾角分析图
轨道综合分析图
查看轨道综合分析图